Flag for U.S.A. Weather past 2 weeks in Fairbanks, Alaska, U.S.A.

Now
54 °F

Sunny.


Feels Like: 52 °F
Forecast: 33 / 50 °F
Wind: 8 mph from South

Location: Wainwright U. S. Army Airfield

Current Time: Apr 19, 2015 at 6:01:39 PM

Latest Report: Apr 19, 2015 at 4:56 PM


Visibility: 10 mi

Pressure: 29.48 "Hg

Humidity: 30%

Dew point: 23 °F

Location of FairbanksLocation

Historic Weather in Fairbanks — Graph

°F

Fairbanks temperature yesterday

Maximum temperature yesterday: 54 °F (at 5:56 PM)
Minimum temperature yesterday: 34 °F (at 3:56 AM)
Average temperature yesterday: 44 °F

Past Weeks' High & Low Weather Summary

 TemperatureHumidityPressure
High57 °F (Apr 19, 12:56 PM)96% (Apr 12, 4:56 AM)29.94 "Hg (Apr 12, 4:56 AM)
Low14 °F (Apr 5, 7:56 AM)24% (Apr 14, 7:55 PM)28.99 "Hg (Apr 10, 5:55 PM)
Average36 °F55%29.44 "Hg
* Reported Apr 4 4:56 PM — Apr 19 4:56 PM, Fairbanks, Weather by CustomWeather, © 2015

Note: Actual official high and low records may vary slightly from our data, if they occured in-between our weather recording intervals... More about our weather records

Advertising

Fairbanks weather history for previous 24 hours

 ConditionsComfort  
Time TempWeatherWind HumidityBarometerVisibility
4:56 PM
Sun, Apr 19
54 °FSunny.8 mph30%29.48 "Hg10 mi
3:56 PM52 °FSunny.8 mph41%29.48 "Hg10 mi
2:56 PM47 °FMostly cloudy.8 mph56%29.47 "Hg10 mi
1:56 PM47 °FBroken clouds.28 mph59%29.46 "Hg10 mi
12:56 PM57 °FSunny.22 mph34%29.37 "Hg10 mi
11:56 AM55 °FPassing clouds.22 mph34%29.35 "Hg10 mi
10:56 AM54 °FPassing clouds.25 mph33%29.33 "Hg10 mi
9:56 AM52 °FScattered clouds.18 mph37%29.33 "Hg10 mi
8:56 AM51 °FSunny.15 mph36%29.34 "Hg10 mi
7:56 AM47 °FSunny.9 mph42%29.37 "Hg10 mi
6:56 AM47 °FClear.15 mph41%29.39 "Hg10 mi
5:56 AM45 °FClear.14 mph44%29.42 "Hg10 mi
4:56 AM45 °FClear.12 mph44%29.44 "Hg10 mi
3:56 AM47 °FClear.14 mph39%29.46 "Hg10 mi
2:56 AM45 °FClear.13 mph42%29.48 "Hg10 mi
1:56 AM46 °FClear.14 mph40%29.48 "Hg10 mi
12:56 AM46 °FClear.13 mph38%29.50 "Hg10 mi
11:56 PM
Sat, Apr 18
47 °FClear.16 mph39%29.51 "Hg10 mi
10:56 PM47 °FClear.13 mph39%29.53 "Hg10 mi
9:56 PM49 °FSunny.14 mph36%29.53 "Hg10 mi
8:56 PM50 °FSunny.14 mph36%29.54 "Hg10 mi
7:56 PM52 °FSunny.14 mph34%29.54 "Hg10 mi
6:56 PM52 °FSunny.12 mph35%29.56 "Hg10 mi
Weather by CustomWeather, © 2015

See weather overviewHow to use our weather pages